Weather History for Bishop, CA

Change the Weather History Date:

Tuesday, November 20, 2012

  Actual Average Record
Temperature  
Mean Temperature 44 °F 43 °F  
Max Temperature 62 °F 60 °F 77 °F (1962)
Min Temperature 25 °F 26 °F 10 °F (1985)
Degree Days  
Heating Degree Days 21 22  
Month to date heating degree days 383 359  
Since 1 July heating degree days 622 666  
Cooling Degree Days 0 0  
Month to date cooling degree days 0 0  
Year to date cooling degree days 1161 1104  
Moisture  
Dew Point 26 °F    
Average Humidity 56    
Maximum Humidity 81    
Minimum Humidity 30    
Precipitation  
Precipitation 0.00 in 0.02 in 0.85 in (1951)
Month to date precipitation T 0.34  
Year to date precipitation 2.67 4.20  
Snow  
Snow 0.00 in 0.00 in T in (1961)
Month to date snowfall 0.0 0.2  
Since 1 July snowfall 0.0 0.2  
Since 1 September snowfall 0.0 0.2  
Snow Depth 0.00 in    
Sea Level Pressure  
Sea Level Pressure 30.13 in    
Wind  
Wind Speed 4 mph (NW)    
Max Wind Speed 13 mph    
Max Gust Speed 17 mph    
Visibility 10 miles    
Events      
T = Trace of Precipitation, MM = Missing Value Source: NWS Daily Summary

Daily Weather History Graph

Daily Weather History Graph

Search for Another Location

Airport:

Trip Planner

Search our weather history database for the weather conditions in past years. The results will help you decide how hot, cold, wet, or windy it might be!

Date:

Astronomy

Nov. 20, 2012 Rise Set
Actual Time 6:38 AM PST 4:39 PM PST
Civil Twilight 6:10 AM PST 5:07 PM PST
Nautical Twilight 5:38 AM PST 5:39 PM PST
Astronomical Twilight 5:07 AM PST 6:10 PM PST
Moon 12:19 PM PST (11/20) No Moon Set
Length of Visible Light 10h 57m
Length of Day
10h 00m
First Quarter, 52% of the Moon is Illuminated
Nov 20
First Quarter
Nov 28
Full
Dec 6
Last Quarter
Dec 13
New
Dec 19
First Quarter

Hourly Weather History & Observations

Time (PST) Temp. Windchill Dew Point Humidity Pressure Visibility Wind Dir Wind Speed Gust Speed Precip Events Conditions
12:56 AM 28.9 °F - 19.9 °F 69% 30.21 in 10.0 mi Calm Calm - N/A   Clear
1:56 AM 32.0 °F 25.6 °F 23.0 °F 69% 30.20 in 10.0 mi NNW 6.9 mph - N/A   Clear
2:56 AM 28.0 °F 21.7 °F 21.0 °F 75% 30.19 in 10.0 mi NW 5.8 mph - N/A   Clear
3:56 AM 26.1 °F 20.5 °F 19.9 °F 78% 30.20 in 10.0 mi North 4.6 mph - N/A   Clear
4:56 AM 27.0 °F 23.0 °F 21.0 °F 78% 30.21 in 10.0 mi NNE 3.5 mph - N/A   Clear
5:56 AM 28.0 °F 21.7 °F 23.0 °F 81% 30.22 in 10.0 mi NW 5.8 mph - N/A   Clear
6:56 AM 26.1 °F - 21.0 °F 81% 30.22 in 10.0 mi Calm Calm - N/A   Clear
7:56 AM 36.0 °F 33.3 °F 27.0 °F 70% 30.22 in 10.0 mi West 3.5 mph - N/A   Clear
8:56 AM 37.0 °F 34.5 °F 26.1 °F 65% 30.22 in 10.0 mi North 3.5 mph - N/A   Clear
9:56 AM 44.1 °F - 28.0 °F 53% 30.21 in 10.0 mi Calm Calm - N/A   Clear
10:56 AM 50.0 °F - 28.9 °F 44% 30.16 in - North - - N/A   Unknown
11:56 AM 53.6 °F - 30.2 °F 41% 30.13 in 10.0 mi South 4.6 mph - N/A   Clear
12:56 PM 57.9 °F - 30.9 °F 36% 30.07 in 10.0 mi South 6.9 mph - N/A   Clear
1:56 PM 59.0 °F - 30.9 °F 35% 30.03 in 10.0 mi South 5.8 mph 17.3 mph N/A   Clear
2:56 PM 62.1 °F - 30.9 °F 31% 30.02 in 10.0 mi South 6.9 mph - N/A   Clear
3:56 PM 59.0 °F - 32.0 °F 36% 30.04 in 10.0 mi SSE 6.9 mph - N/A   Clear
4:56 PM 54.0 °F - 30.0 °F 40% 30.05 in 10.0 mi Calm Calm - N/A   Clear
5:56 PM 46.0 °F 43.9 °F 28.0 °F 50% 30.08 in 10.0 mi WNW 4.6 mph - N/A   Clear
6:56 PM 45.0 °F 42.6 °F 27.0 °F 49% 30.09 in 10.0 mi West 4.6 mph - N/A   Clear
7:56 PM 37.9 °F 34.4 °F 26.1 °F 62% 30.09 in 10.0 mi North 4.6 mph - N/A   Clear
8:56 PM 37.0 °F 31.0 °F 26.1 °F 65% 30.09 in 10.0 mi NW 8.1 mph - N/A   Clear
9:56 PM 37.0 °F 32.4 °F 26.1 °F 65% 30.07 in 10.0 mi NW 5.8 mph - N/A   Clear
10:56 PM 32.0 °F 26.4 °F 24.1 °F 73% 30.06 in 10.0 mi North 5.8 mph - N/A   Clear
11:56 PM 32.0 °F 28.7 °F 25.0 °F 75% 30.07 in 10.0 mi NW 3.5 mph - N/A   Clear